Regional Weather Roundup
Issued by NWS Charleston, SC

Current Version | Previous Version | Graphics & Text | Print | Product List | Glossary On
Versions: 1 2 3 4 5 6 7 8 9 10 11 12 13 14 15 16 17 18 19 20 21 22 23 24 25 26 27 28 29 30 31 32 33 34 35 36 37 38 39 40 41 42 43 44 45 46 47 48 49 50
000
ASUS42 KCHS 271325
RWRCHS

REGIONAL WEATHER ROUNDUP
NATIONAL WEATHER SERVICE CHARLESTON SC
800 AM EST THU NOV 27 2014

NOTE: "FAIR" INDICATES FEW OR NO CLOUDS BELOW 12,000 FEET WITH NO
SIGNIFICANT WEATHER AND/OR OBSTRUCTIONS TO VISIBILITY.

NOT ALL STATIONS ARE QUALITY CONTROLLED BY THE NATIONAL
WEATHER SERVICE. USE DATA WITH CAUTION...ESPECIALLY
DEWPOINT OBSERVATIONS.

SCZ027-030-031-034>040-042>050-271400-
...SOUTHEAST SOUTH CAROLINA...

CITY           SKY/WX    TMP DP  RH WIND       PRES   REMARKS
N CHARLESTON   CLEAR     46  36  68 W12       30.12R
WATERFRONT PRK   N/A     48 N/A N/A W9G16       N/A
MOUNT PLEASANT FAIR      48  36  61 W9        30.12R
JOHNS ISLAND   SUNNY     48  43  81 W9        30.14R
PINOPOLIS        N/A     46  39  76 W17       30.02R
MONCKS CORNER  FAIR      45  41  87 SW8       30.11R
SUMMERVILLE    FAIR      45  37  76 SW8       30.13S
BEAUFORT MCAS  CLEAR     47  36  65 W10       30.16R
BEAUFORT ARPT  FAIR      48  37  66 W13G18    30.15S
HILTON HEAD IS CLEAR     46  37  71 SW12      30.18R
WALTERBORO     SUNNY     46  32  57 W12G22    30.14S
ALLENDALE      FAIR      45  36  70 VRB6G13   30.15R

...SOUTHERN MIDLANDS AND PEE DEE...

CITY           SKY/WX    TMP DP  RH WIND       PRES   REMARKS
GEORGETOWN     NOT AVBL
KINGSTREE      NOT AVBL
ORANGEBURG     CLEAR     44  33  65 W10       30.11R
BARNWELL       FAIR      45  34  65 W8G16     30.14R
AIKEN          FAIR      45  32  61 W16G25    30.15R
MANNING        NOT AVBL
COLUMBIA       CLEAR     46  31  55 W20       30.09R
SUMTER         CLEAR     43  32  65 W13       30.05R
FLORENCE       CLEAR     44  35  70 W12       30.05R
MYRTLE BEACH   MOSUNNY   46  36  66 W9        30.06R
N MYRTLE BEACH MOSUNNY   46  36  68 W9        30.05R

$$

GAZ063-065-086>088-099>101-113>116-118-119-134>141-150-271400-
...SOUTHEAST GEORGIA...

CITY           SKY/WX    TMP DP  RH WIND       PRES   REMARKS
SAVANNAH ARPT  CLEAR     46  37  71 W6        30.19R
HUNTER AAF     CLEAR     45  38  78 W10       30.18R
FORT STEWART   CLEAR     44  38  80 SW7       30.20R
STATESBORO     NOT AVBL
SYLVANIA       SUNNY     48  37  65 W13       30.19R
CLAXTON        FAIR      48  19  32 W9G16     30.20R

...CSRA...CENTRAL AND FAR SOUTHEAST GEORGIA...

CITY           SKY/WX    TMP DP  RH WIND       PRES   REMARKS
THOMSON        CLEAR     44  37  76 W10       30.21R
AUGUSTA-BUSH   CLEAR     45  29  53 W15G23    30.15R
AUGUSTA-DANIEL CLEAR     45  29  53 W12G18    30.15R
SWAINSBORO     FAIR      46  36  66 W8        30.21R
VIDALIA        CLEAR     46  36  66 W6        30.22R
HAZLEHURST     FAIR      46  39  76 W6        30.23R
ALMA           CLEAR     41  38  89 SW3       30.24R
WAYCROSS       CLEAR     50  43  77 NW9       30.25R
JESUP          FAIR      50  43  76 CALM      30.24R
BAXLEY         FAIR      46  39  76 W6        30.23R
BRUNSWICK      CLEAR     48  39  71 W8        30.25R
SAINT SIMONS   CLEAR     48  39  71 W9        30.23R

$$

SCZ027-028-034-036>038-045-046-048>050-GAZ119-141-271400-
...LAKE AND SUPPLEMENTAL COASTAL OBSERVATIONS...

STATION/POSITION TIME  TEMP    WIND        PRES    WAVE   SWELL
                       AIR SEA DIR/SP/G            HT/PER HT/PER/DIR
                 (UTC) (F)     (DEG/KT/KT) (MB)    (FT/S) (FT/S/D)
UPR LAKE MARION  NOT AVBL
WINYAH BAY       1300   45     260/  9     1018.0S
LAKE MURRAY      1200   46     270/ 22/ 30 1016.9R
ACE BASIN NERRS  1300   46     260/  4     1020.0S
FORT PULASKI     1300   49     260/ 13/ 18 1022.4R
SAPELO ISLAND    1300   47     260/  8     1023.0S

$$

ANZ835-935-AMZ111-154-330-350-352-354-370-450-454-472-271400-
...C-MAN AND BUOY OBSERVATIONS...

STATION/POSITION TIME  TEMP    WIND        PRES    WAVE   SWELL
                       AIR SEA DIR/SP/G            HT/PER HT/PER/DIR
                 (UTC) (F)     (DEG/KT/KT) (MB)    (FT/S) (FT/S/D)
FOLLY BEACH CMAN 1300   48     260/ 10/ 13 1020.3R
BUOY 41004       1300   59 74  260/ 25/ 29 1018.5R   7/ 6   2/ 9
BUOY 41008       1300   54 64  290/ 21/ 27 1022.4R   4/ 5   2/130/ 9
CAPERS NEARSHORE 1200   52     270/ 21/ 25   N/A
FRIPP NEARSHORE  NOT AVBL


STATION/POSITION TIME  TEMP    WIND        PRES    WAVE   SWELL
                       AIR SEA DIR/SP/G            HT/PER HT/PER/DIR
                 (UTC) (F)     (DEG/KT/KT) (MB)    (FT/S) (FT/S/D)
5E ST. MARYS GA  1300      61                N/A     2/ 3
FRYING PAN BUOY  1300   61 71  230/ 19/ 25 1017.9F   6/ 6   2/130/ 9
BUOY 41025       1300   52      CALM  /  2 1018.5F   5/ 9   5/100/ 9
CAPE LOOKOUT NC  1300   53     160/  6/  7 1017.7F
BUOY 41002       1248   66 73  260/ 10/ 14 1020.1F   8/ 8   8/260/ 8
BUOY 41010       1300   68 78  310/ 17/ 21 1022.9R   6/ 7   3/110/ 9
ST AUGUSTINE FL  1300   49     250/  6/  8 1024.5R


$$



USA.gov is the U.S. government's official web portal to all federal, state and local government web resources and services.